Flag for Belgium Weather past 2 weeks in Brussels, Belgium

Now
35 °F

Chilly.


Feels Like: 32 °F
Forecast: 34 / 39 °F
Wind: 3 mph from West

Location: Uccle

Current Time: Feb 1, 2015 at 8:28:50 AM

Latest Report: Feb 1, 2015 at 7:00 AM


Visibility: N/A

Pressure: 29.21 "Hg

Humidity: 96%

Dew point: 34 °F

Location of BrusselsLocation

Historic Weather in Brussels — Graph

°F

Brussels temperature yesterday

Maximum temperature yesterday: 37 °F (at 1:00 PM)
Minimum temperature yesterday: 31 °F (at 8:00 AM)
Average temperature yesterday: 35 °F

Past Weeks' High & Low Weather Summary

 TemperatureHumidityPressure
High47 °F (Jan 26, 3:00 PM)96% (Jan 17, 8:00 AM)30.47 "Hg (Jan 17, 8:00 AM)
Low28 °F (Jan 22, 5:00 AM)69% (Jan 21, 2:00 PM)28.76 "Hg (Jan 29, 9:00 PM)
Average35 °F89%29.84 "Hg
* Reported Jan 17 7:00 AM — Feb 1 7:00 AM, Brussels, Weather by CustomWeather, © 2014

Note: Actual official high and low records may vary slightly from our data, if they occured in-between our weather recording intervals... More about our weather records

Advertising

Brussels weather history for previous 24 hours

 ConditionsComfort  
Time TempWeatherWind HumidityBarometerVisibility
7:00 AM
Feb 1
35 °FChilly.3 mph96%29.21 "HgN/A
6:00 AM33 °FChilly.3 mph96%29.21 "HgN/A
5:00 AM33 °FChilly.2 mph95%29.18 "HgN/A
4:00 AM33 °FChilly.3 mph94%29.18 "HgN/A
3:00 AM34 °FChilly.3 mph95%29.15 "HgN/A
2:00 AM34 °FChilly.2 mph94%29.15 "HgN/A
1:00 AM34 °FChilly.2 mph93%29.15 "HgN/A
12:00 AM35 °FChilly.2 mph93%29.15 "HgN/A
11:00 PM
Jan 31
35 °FChilly.2 mph92%29.15 "HgN/A
10:00 PM35 °FChilly.2 mph92%29.15 "HgN/A
9:00 PM36 °FChilly.1 mph91%29.12 "HgN/A
8:00 PM36 °FChilly.2 mph90%29.09 "HgN/A
7:00 PM36 °FChilly.2 mph88%29.09 "HgN/A
6:00 PM36 °FChilly.2 mph87%29.06 "HgN/A
5:00 PM37 °FChilly.2 mph87%29.03 "HgN/A
4:00 PM36 °FChilly.3 mph88%29.03 "HgN/A
3:00 PM37 °FChilly.3 mph85%29.03 "HgN/A
2:00 PM37 °FChilly.3 mph85%29.03 "HgN/A
1:00 PM37 °FChilly.3 mph86%29.03 "HgN/A
12:00 PM35 °FChilly.3 mph92%29.03 "HgN/A
11:00 AM34 °FChilly.3 mph89%29.00 "HgN/A
10:00 AM34 °FChilly.3 mph94%29.00 "HgN/A
9:00 AM32 °FChilly.3 mph94%29.00 "HgN/A
8:00 AM31 °FChilly.3 mph93%28.97 "HgN/A
Weather by CustomWeather, © 2014

See weather overviewHow to use our weather pages